This is the latest recevied weather packets stored in our database for station/object W4ZHA. If no packets are shown the sender has not sent any weather packets the latest 10 day(s).
| Time | Temp. | Humidity | Pressure | Rain* | Wind** | Luminosity | Snow |
|---|---|---|---|---|---|---|---|
| 1787613113 | 29.44° C | 46% | 1015.8 hPa | 0 mm | - | 33 W/m² | - |
| 1787612810 | 29.44° C | 46% | 1015.8 hPa | 0 mm | - | 35 W/m² | - |
| 1787612507 | 30° C | 46% | 1015.8 hPa | 0 mm | - | 45 W/m² | - |
| 1787612202 | 30.56° C | 45% | 1016.1 hPa | 0 mm | - | 41 W/m² | - |
| 1787611898 | 32.78° C | 45% | 1016.1 hPa | 0 mm | - | 107 W/m² | - |
| 1787611594 | 32.22° C | 45% | 1015.8 hPa | 0 mm | - | 281 W/m² | - |
| 1787611290 | 31.67° C | 45% | 1015.8 hPa | 0 mm | - | 290 W/m² | - |
| 1787610985 | 32.22° C | 45% | 1015.8 hPa | 0 mm | - | 301 W/m² | - |
| 1787610681 | 32.22° C | 45% | 1015.8 hPa | 0 mm | - | 311 W/m² | - |
| 1787610375 | 32.22° C | 45% | 1015.8 hPa | 0 mm | - | 317 W/m² | - |
| 1787610074 | 31.67° C | 45% | 1015.8 hPa | 0 mm | - | 325 W/m² | - |
| 1787609769 | 31.67° C | 45% | 1015.8 hPa | 0 mm | - | 334 W/m² | - |
| 1787609464 | 31.67° C | 45% | 1015.8 hPa | 0 mm | - | 344 W/m² | - |
| 1787609163 | 32.22° C | 45% | 1015.8 hPa | 0 mm | - | 353 W/m² | - |
| 1787608858 | 31.11° C | 45% | 1015.8 hPa | 0 mm | - | 343 W/m² | - |
| 1787608557 | 32.78° C | 45% | 1015.8 hPa | 0 mm | - | 362 W/m² | - |
| 1787608253 | 32.78° C | 45% | 1015.8 hPa | 0 mm | - | 380 W/m² | - |
| 1787607950 | 31.67° C | 45% | 1015.8 hPa | 0 mm | - | 382 W/m² | - |
| 1787607647 | 32.78° C | 45% | 1015.5 hPa | 0 mm | - | 386 W/m² | - |
| 1787607344 | 32.22° C | 45% | 1015.8 hPa | 0 mm | - | 393 W/m² | - |
| 1787607040 | 31.67° C | 45% | 1015.5 hPa | 0 mm | - | 397 W/m² | - |
| 1787606738 | 33.33° C | 45% | 1015.8 hPa | 0 mm | - | 409 W/m² | - |
| 1787606432 | 33.33° C | 47% | 1015.5 hPa | 0 mm | - | 416 W/m² | - |
| 1787606127 | 31.11° C | 45% | 1015.8 hPa | 0 mm | - | 421 W/m² | - |
| 1787605826 | 31.67° C | 45% | 1015.8 hPa | 0 mm | - | 417 W/m² | - |
* Rain latest hour (hover to see other rain measurements)
** Current wind speed in m/s (hover to see current wind gust speed)